This is the latest recevied weather packets stored in our database for station/object KC0MWM-2. If no packets are shown the sender has not sent any weather packets the latest 10 day(s).
| Time | Temp. | Humidity | Pressure | Rain* | Wind** | Luminosity | Snow |
|---|---|---|---|---|---|---|---|
| 1777881977 | 15.56° C | 51% | 1006.3 hPa | 0 mm | - | - | - |
| 1777880177 | 15.56° C | 51% | 1006.4 hPa | 0 mm | - | - | - |
| 1777875377 | 14.44° C | 52% | 1007.8 hPa | 0 mm | - | - | - |
| 1777872997 | 15° C | 52% | 1008.1 hPa | 0 mm | - | - | - |
| 1777866975 | 16.67° C | 50% | 1008.9 hPa | 0 mm | - | - | - |
| 1777866375 | 16.67° C | 50% | 1008.9 hPa | 0 mm | - | - | - |
| 1777864575 | 17.22° C | 50% | 1009.1 hPa | 0 mm | - | - | - |
| 1777860977 | 18.33° C | 45% | 1008.9 hPa | 0 mm | - | - | - |
| 1777857377 | 22.22° C | 36% | 1009.4 hPa | 0 mm | - | - | - |
| 1777856177 | 22.78° C | 35% | 1009.5 hPa | 0 mm | - | - | - |
| 1777848977 | 23.89° C | 33% | 1010.7 hPa | 0 mm | - | - | - |
| 1777847777 | 24.44° C | 33% | 1010.9 hPa | 0 mm | - | - | - |
| 1777846577 | 24.44° C | 34% | 1011.1 hPa | 0 mm | - | - | - |
| 1777838777 | 23.89° C | 35% | 1013 hPa | 0 mm | - | - | - |
| 1777832776 | 23.89° C | 34% | 1013.9 hPa | 0 mm | - | - | - |
| 1777823776 | 20° C | 43% | 1015.5 hPa | 0 mm | - | - | - |
| 1777821976 | 18.89° C | 45% | 1015.5 hPa | 0 mm | - | - | - |
| 1777821376 | 18.33° C | 48% | 1015.6 hPa | 0 mm | - | - | - |
| 1777819576 | 16.67° C | 51% | 1015.5 hPa | 0 mm | - | - | - |
| 1777818976 | 16.67° C | 51% | 1015.5 hPa | 0 mm | - | - | - |
| 1777817176 | 15° C | 56% | 1015.4 hPa | 0 mm | - | - | - |
| 1777815376 | 13.33° C | 61% | 1015.2 hPa | 0 mm | - | - | - |
| 1777806976 | 9.44° C | 67% | 1013.6 hPa | 0 mm | - | - | - |
| 1777803395 | 11.11° C | 63% | 1013.4 hPa | 0 mm | - | - | - |
| 1777801575 | 11.67° C | 60% | 1014.2 hPa | 0 mm | - | - | - |
* Rain latest hour (hover to see other rain measurements)
** Current wind speed in m/s (hover to see current wind gust speed)